[[{"header":{"parameterUnit":"m.s-1","parameterCategory":1,"la1":30.2991,"la2":30.254,"lo1":-89.0895,"lo2":-89.0444,"dy":0.0017,"dx":0.0017,"nx":28,"ny":28,"refTime":"2024-12-07T03:00:00:Z","depth":0,"parameterNumber":2,"parameterNumberName":"U-component_of_WINDS"},"data":[0,0,0,0,0,0,0,0,0,0,0,0,0,0,0,0,0,0,0,0,0,0,0,0,0,0,0,0,0,0,0,0,0,0,0,0,0,0,0,0,0,0,0,0,0,0,0,0,0,0,0,0,0,0,0,0,0,0,-4.5444,-4.5445,0,-4.549,-4.549,-4.5491,-4.537,-4.5366,-4.5362,-4.5359,-4.5408,-4.5413,-4.5417,0,0,0,0,0,0,0,0,0,0,0,0,0,-4.5255,-4.5259,-4.5444,-4.5445,-4.5446,-4.549,-4.549,-4.5491,-4.5371,-4.5366,-4.5361,-4.5357,-4.5406,-4.5412,-4.5418,0,0,0,0,0,0,0,0,0,0,0,0,0,-4.5323,-4.526,-4.5444,-4.5391,-4.5386,-4.549,-4.549,-4.5491,-4.5371,-4.5366,-4.536,-4.5355,-4.5404,-4.5411,-4.5419,-4.5577,0,0,-4.5441,-4.5444,0,0,0,0,0,0,0,0,-4.5319,-4.533,-4.5398,-4.5395,-4.539,-4.5418,-4.5441,-4.552,-4.5373,-4.5377,-4.5359,-4.5352,-4.5416,-4.5422,-4.5443,-4.5579,-4.5581,-4.5441,-4.5446,-4.5449,-4.5451,0,0,0,0,0,0,0,-4.5314,-4.5327,-4.5462,-4.5399,-4.5394,-4.5365,-4.5368,-4.5456,-4.5428,-4.5376,-4.5368,-4.5375,-4.5413,-4.5436,-4.5443,-4.5582,-4.5441,-4.5448,-4.5452,-4.5455,-4.585,-4.5856,0,0,0,0,0,0,-4.5316,-4.5324,-4.5461,-4.5464,-4.534,-4.5373,-4.5377,-4.5415,-4.5427,-4.5423,-4.5379,-4.5369,-4.5427,-4.5435,-4.5445,-4.5631,-4.5449,-4.5456,-4.546,-4.5844,-4.5852,-4.5858,0,0,0,0,0,0,-4.5313,-4.533,-4.5459,-4.5392,-4.5406,-4.5382,-4.5426,-4.5419,-4.5442,-4.5429,-4.5424,-4.5409,-4.5423,-4.5434,-4.5545,-4.5631,-4.5459,-4.5465,-4.5837,-4.5847,-4.5855,-4.6005,0,0,0,0,0,0,-4.5308,-4.5329,-4.5389,-4.5394,-4.541,-4.5559,-4.5431,-4.5424,-4.5455,-4.5441,-4.5455,-4.5452,-4.5419,-4.5535,-4.5552,-4.5638,-4.5471,-4.5829,-4.5841,-4.5852,-4.5993,-4.6019,-4.6041,0,0,0,0,0,-4.5302,-4.543,-4.5392,-4.541,-4.5484,-4.5564,-4.5573,-4.5532,-4.5462,-4.5522,-4.5514,-4.5451,-4.5619,-4.5547,-4.5565,-4.5655,-4.5824,-4.5838,-4.5851,-4.5982,-4.6013,-4.604,0,0,0,0,0,0,-4.5436,-4.5429,-4.5388,-4.5521,-4.5544,-4.5543,-4.5617,-4.5567,-4.561,-4.5596,-4.5544,-4.5548,-4.5669,-4.5672,-4.5593,-4.5809,-4.5709,-4.5728,-4.5802,-4.5832,-4.5856,-4.5853,-4.5477,0,0,0,0,0,-4.5481,-4.5546,-4.5537,-4.5655,-4.5669,-4.5642,-4.5675,-4.5641,-4.5663,-4.5672,-4.5671,-4.5696,-4.5753,-4.5793,-4.5845,-4.5992,-4.5994,-4.6063,-4.6087,-4.6107,-4.6124,-4.6202,-4.6233,-4.5904,-4.5904,-4.5904,0,0,-4.5575,-4.558,-4.5624,-4.5683,-4.5696,-4.5765,-4.565,-4.5728,-4.5779,-4.5684,-4.5788,-4.5789,-4.5812,-4.5942,-4.5999,-4.5949,-4.6215,-4.6124,-4.614,-4.6146,-4.622,-4.6251,-4.6278,-4.5913,-4.5912,-4.591,0,0,-4.5782,-4.5792,-4.5892,-4.5908,-4.5929,-4.591,-4.5934,-4.5941,-4.5938,-4.6041,-4.5971,-4.6031,-4.6132,-4.6152,-4.6175,-4.6389,-4.6334,-4.6408,-4.6534,-4.6611,-4.6637,-4.666,-4.6737,-4.6766,-4.6424,-4.6425,-4.6425,0,-4.5897,-4.5997,-4.595,-4.6033,-4.6061,-4.5977,-4.6078,-4.6096,-4.6135,-4.6156,-4.6099,-4.6224,-4.6234,-4.6367,-4.6419,-4.644,-4.6467,-4.6406,-4.6637,-4.666,-4.668,-4.6753,-4.6782,-4.6433,-4.6432,-4.6431,-4.6431,0,-4.6138,-4.6209,-4.6287,-4.6325,-4.6362,-4.6454,-4.6421,-4.6464,-4.6427,-4.6415,-4.6521,-4.653,-4.6583,-4.6612,-4.6577,-4.6741,-4.6709,-4.6646,-4.6545,-4.6721,-4.6789,-4.6817,-4.6446,-4.6443,-4.644,-4.6438,0,0,-4.6432,-4.6442,-4.6472,-4.6488,-4.6506,-4.656,-4.6648,-4.6699,-4.6738,-4.6767,-4.684,-4.6927,-4.6868,-4.6895,-4.6861,-4.6929,-4.7099,-4.6857,-4.6857,-4.6903,-4.7281,-4.7329,-4.7362,-4.7062,-4.7067,-4.7071,-4.7279,0,-4.6636,-4.6787,-4.6747,-4.6897,-4.6962,-4.6883,-4.696,-4.698,-4.697,-4.7025,-4.7014,-4.7077,-4.6994,-4.701,-4.7073,-4.7065,-4.7175,-4.7049,-4.7131,-4.7134,-4.7128,-4.7397,-4.7449,-4.7645,-4.7305,-4.731,-4.7313,0,-4.6895,-4.6934,-4.7091,-4.7098,-4.7124,-4.7194,-4.7237,-4.729,-4.7311,-4.7299,-4.7329,-4.7282,-4.7369,-4.7267,-4.7387,-4.7303,-4.7334,-4.7335,-4.7342,-4.7348,-4.7235,-4.7413,-4.7706,-4.7736,-4.7354,-4.7351,-4.7348,0,-4.7095,-4.7187,-4.7292,-4.7309,-4.7319,-4.737,-4.7377,-4.7392,-4.7425,-4.7464,-4.7485,-4.7533,-4.756,-4.7599,-4.7566,-4.7495,-4.7693,-4.7587,-4.7686,-4.7687,-4.7732,-4.773,-4.8036,-4.7751,-4.775,-4.775,-4.7749,0,-4.7329,-4.7428,-4.7382,-4.7448,-4.7557,-4.7509,-4.7619,-4.7617,-4.7631,-4.7695,-4.7629,-4.7691,-4.7644,-4.7702,-4.7677,-4.7781,-4.7793,-4.7787,-4.7779,-4.7793,-4.7794,-4.7813,-4.7799,-4.7758,-4.7756,-4.7754,-4.7753,0,-4.7571,-4.7544,-4.7654,-4.7655,-4.7657,-4.7738,-4.7739,-4.78,-4.7785,-4.7866,-4.7883,-4.786,-4.7925,-4.7896,-4.7964,-4.7947,-4.8081,-4.8055,-4.8074,-4.8068,-4.8169,-4.816,-4.8498,-4.854,-4.8228,-4.8231,-4.8233,0,-4.7722,-4.7797,-4.7806,-4.7843,-4.7855,-4.7916,-4.795,-4.7906,-4.7944,-4.7973,-4.8031,-4.8089,-4.8134,-4.8241,-4.8231,-4.8283,-4.8258,-4.8373,-4.8265,-4.8277,-4.8261,-4.8257,-4.8264,-4.8395,-4.8398,-4.8401,-4.8404,0,-4.7994,-4.7977,-4.8027,-4.8074,-4.8115,-4.815,-4.8179,-4.8213,-4.8171,-4.8217,-4.8281,-4.8316,-4.8385,-4.8444,-4.849,-4.8497,-4.8445,-4.8437,-4.8463,-4.8479,-4.8487,-4.8485,-4.8134,-4.843,-4.8428,-4.8426,-4.8424,-4.8423,-4.8196,-4.8259,-4.8275,-4.8333,-4.835,-4.8379,-4.8436,-4.8428,-4.8481,-4.8533,-4.8504,-4.858,-4.8599,-4.8654,-4.8669,-4.8728,-4.8683,-4.872,-4.873,-4.874,-4.8754,-4.8477,-4.8736,-4.8735,-4.8735,-4.8734,-4.8733,0,-4.8465,-4.8471,-4.8525,-4.8568,-4.8614,-4.8558,-4.8587,-4.863,-4.8698,-4.8719,-4.8764,-4.8839,-4.8896,-4.8891,-4.8943,-4.8992,-4.8969,-4.9007,-4.9004,-4.9007,-4.8791,-4.8763,-4.9025,-4.9025,-4.9025,-4.9025,-4.9025,-4.9025,-4.8611,-4.8714,-4.8699,-4.881,-4.8815,-4.8889,-4.891,-4.8936,-4.8953,-4.904,-4.9087,-4.9082,-4.9093,-4.9146,-4.9196,-4.9193,-4.9216,-4.9264,-4.9252,-4.9051,-4.9022,-4.8994,-4.8968,-4.9269,-4.9269,-4.9463,-4.9465,-4.9466]},{"header":{"parameterUnit":"m.s-1","parameterCategory":1,"la1":30.2991,"la2":30.254,"lo1":-89.0895,"lo2":-89.0444,"dy":0.0017,"dx":0.0017,"nx":28,"ny":28,"refTime":"2024-12-07T03:00:00:Z","depth":0,"parameterNumber":3,"parameterNumberName":"V-component_of_WINDS"},"data":[0,0,0,0,0,0,0,0,0,0,0,0,0,0,0,0,0,0,0,0,0,0,0,0,0,0,0,0,0,0,0,0,0,0,0,0,0,0,0,0,0,0,0,0,0,0,0,0,0,0,0,0,0,0,0,0,0,0,-2.4734,-2.4735,0,-2.4754,-2.4754,-2.4754,-2.4714,-2.4712,-2.4711,-2.471,-2.4729,-2.4731,-2.4732,0,0,0,0,0,0,0,0,0,0,0,0,0,-2.466,-2.4661,-2.4734,-2.4735,-2.4735,-2.4754,-2.4754,-2.4754,-2.4714,-2.4712,-2.4711,-2.4709,-2.4728,-2.473,-2.4732,0,0,0,0,0,0,0,0,0,0,0,0,0,-2.4687,-2.4662,-2.4734,-2.4717,-2.4715,-2.4754,-2.4754,-2.4754,-2.4714,-2.4712,-2.471,-2.4708,-2.4728,-2.473,-2.4733,-2.4789,0,0,-2.4741,-2.4742,0,0,0,0,0,0,0,0,-2.4685,-2.469,-2.4719,-2.4718,-2.4717,-2.4729,-2.4735,-2.4766,-2.4715,-2.4715,-2.471,-2.4707,-2.4731,-2.4733,-2.4741,-2.479,-2.479,-2.4741,-2.4743,-2.4744,-2.4744,0,0,0,0,0,0,0,-2.4684,-2.4689,-2.4742,-2.472,-2.4718,-2.4707,-2.4709,-2.474,-2.4733,-2.4714,-2.4712,-2.4714,-2.4729,-2.4738,-2.4741,-2.4791,-2.4741,-2.4743,-2.4745,-2.4746,-2.4885,-2.4887,0,0,0,0,0,0,-2.4684,-2.4687,-2.4741,-2.4743,-2.4696,-2.471,-2.4712,-2.4727,-2.4733,-2.4732,-2.4716,-2.4712,-2.4735,-2.4738,-2.4741,-2.4806,-2.4744,-2.4746,-2.4748,-2.4882,-2.4885,-2.4887,0,0,0,0,0,0,-2.4683,-2.4689,-2.4741,-2.4714,-2.472,-2.4714,-2.4731,-2.4729,-2.4737,-2.4734,-2.4733,-2.4727,-2.4733,-2.4738,-2.4777,-2.4806,-2.4747,-2.475,-2.488,-2.4883,-2.4886,-2.4937,0,0,0,0,0,0,-2.4681,-2.4689,-2.4711,-2.4715,-2.4721,-2.4777,-2.4733,-2.473,-2.4742,-2.4738,-2.4744,-2.4743,-2.4732,-2.4773,-2.478,-2.4809,-2.4752,-2.4877,-2.4881,-2.4885,-2.4933,-2.4942,-2.4949,0,0,0,0,0,-2.4678,-2.4725,-2.4712,-2.4719,-2.4749,-2.4778,-2.4782,-2.4769,-2.4745,-2.4766,-2.4764,-2.4743,-2.4802,-2.4778,-2.4784,-2.4815,-2.4875,-2.488,-2.4885,-2.4929,-2.494,-2.4949,0,0,0,0,0,0,-2.4725,-2.4725,-2.4711,-2.4761,-2.477,-2.4771,-2.4798,-2.4781,-2.4797,-2.4792,-2.4775,-2.4777,-2.4819,-2.4821,-2.4793,-2.4869,-2.4835,-2.4841,-2.4866,-2.4876,-2.4884,-2.4883,-2.4754,0,0,0,0,0,-2.474,-2.4765,-2.4764,-2.4808,-2.4813,-2.4805,-2.4817,-2.4806,-2.4815,-2.4819,-2.4819,-2.4828,-2.4848,-2.4862,-2.4881,-2.4933,-2.4933,-2.4957,-2.4965,-2.4972,-2.4978,-2.5004,-2.5014,-2.4903,-2.4903,-2.4903,0,0,-2.4774,-2.4777,-2.4794,-2.4817,-2.4823,-2.4848,-2.4808,-2.4837,-2.4855,-2.4823,-2.486,-2.486,-2.4869,-2.4914,-2.4934,-2.4917,-2.5008,-2.4978,-2.4984,-2.4986,-2.501,-2.502,-2.503,-2.4906,-2.4905,-2.4905,0,0,-2.4847,-2.4852,-2.4889,-2.4895,-2.4904,-2.4898,-2.4907,-2.4911,-2.491,-2.4947,-2.4923,-2.4944,-2.498,-2.4986,-2.4995,-2.5069,-2.5049,-2.5075,-2.5118,-2.5144,-2.5153,-2.516,-2.5186,-2.5195,-2.5081,-2.5081,-2.5081,0,-2.4887,-2.4925,-2.491,-2.4939,-2.495,-2.4921,-2.4957,-2.4964,-2.4979,-2.4986,-2.4967,-2.501,-2.5014,-2.506,-2.5078,-2.5086,-2.5095,-2.5074,-2.5153,-2.516,-2.5167,-2.5191,-2.5201,-2.5084,-2.5084,-2.5083,-2.5083,0,-2.4973,-2.4999,-2.5027,-2.5042,-2.5055,-2.5088,-2.5077,-2.5092,-2.508,-2.5076,-2.5112,-2.5116,-2.5134,-2.5144,-2.5133,-2.5188,-2.5177,-2.5156,-2.5121,-2.5181,-2.5203,-2.5213,-2.5088,-2.5087,-2.5086,-2.5085,0,0,-2.5077,-2.5082,-2.5092,-2.5098,-2.5105,-2.5125,-2.5155,-2.5173,-2.5186,-2.5197,-2.5222,-2.5252,-2.5232,-2.5241,-2.5229,-2.5252,-2.5309,-2.5227,-2.5227,-2.5242,-2.5369,-2.5386,-2.5397,-2.5296,-2.5298,-2.5299,-2.5368,0,-2.5149,-2.5202,-2.5189,-2.5241,-2.5264,-2.5237,-2.5264,-2.527,-2.5267,-2.5286,-2.5281,-2.5303,-2.5275,-2.528,-2.5301,-2.5298,-2.5335,-2.5293,-2.5319,-2.532,-2.5317,-2.5408,-2.5426,-2.5491,-2.5377,-2.5379,-2.538,0,-2.5241,-2.5254,-2.5309,-2.5311,-2.532,-2.5344,-2.5359,-2.5377,-2.5384,-2.5379,-2.5389,-2.5373,-2.5402,-2.5367,-2.5407,-2.5379,-2.5388,-2.5388,-2.539,-2.5392,-2.5353,-2.5412,-2.5511,-2.5521,-2.5394,-2.5392,-2.5391,0,-2.531,-2.5342,-2.5379,-2.5384,-2.5388,-2.5405,-2.5407,-2.5412,-2.5423,-2.5436,-2.5442,-2.5458,-2.5467,-2.5479,-2.5467,-2.5443,-2.5508,-2.5473,-2.5505,-2.5505,-2.552,-2.5519,-2.5622,-2.5527,-2.5527,-2.5527,-2.5526,0,-2.5392,-2.5426,-2.541,-2.5432,-2.547,-2.5453,-2.549,-2.5489,-2.5493,-2.5515,-2.5492,-2.5512,-2.5495,-2.5514,-2.5504,-2.5538,-2.5542,-2.5539,-2.5536,-2.5541,-2.5541,-2.5547,-2.5542,-2.5529,-2.5529,-2.5528,-2.5528,0,-2.5476,-2.5467,-2.5504,-2.5504,-2.5505,-2.5532,-2.5531,-2.5552,-2.5546,-2.5573,-2.5578,-2.5569,-2.559,-2.5579,-2.56,-2.5594,-2.5637,-2.5629,-2.5635,-2.5633,-2.5666,-2.5663,-2.5775,-2.5789,-2.5686,-2.5687,-2.5687,0,-2.5529,-2.5554,-2.5556,-2.5569,-2.5572,-2.5593,-2.5604,-2.5588,-2.56,-2.5609,-2.5628,-2.5646,-2.566,-2.5694,-2.5689,-2.5705,-2.5696,-2.5735,-2.5699,-2.5702,-2.5696,-2.5695,-2.5697,-2.5742,-2.5743,-2.5744,-2.5745,0,-2.5623,-2.5617,-2.5633,-2.5648,-2.5662,-2.5673,-2.5681,-2.5693,-2.5677,-2.5692,-2.5712,-2.5723,-2.5744,-2.5763,-2.5776,-2.5777,-2.5759,-2.5756,-2.5764,-2.577,-2.5772,-2.5771,-2.5655,-2.5754,-2.5753,-2.5752,-2.5752,-2.5751,-2.5693,-2.5714,-2.5718,-2.5737,-2.5742,-2.575,-2.5769,-2.5765,-2.5782,-2.5798,-2.5787,-2.5811,-2.5816,-2.5831,-2.5835,-2.5853,-2.5838,-2.585,-2.5853,-2.5856,-2.586,-2.5769,-2.5856,-2.5855,-2.5855,-2.5855,-2.5855,0,-2.5785,-2.5786,-2.5804,-2.5816,-2.5831,-2.5812,-2.582,-2.5833,-2.5855,-2.586,-2.5874,-2.5897,-2.5914,-2.5911,-2.5926,-2.5941,-2.5933,-2.5946,-2.5944,-2.5945,-2.5874,-2.5865,-2.5952,-2.5952,-2.5952,-2.5952,-2.5952,-2.5952,-2.5835,-2.5869,-2.5863,-2.5899,-2.5899,-2.5922,-2.5929,-2.5936,-2.594,-2.5967,-2.5981,-2.5978,-2.598,-2.5995,-2.6009,-2.6008,-2.6014,-2.603,-2.6026,-2.5959,-2.595,-2.5941,-2.5932,-2.6032,-2.6032,-2.6095,-2.6095,-2.6096]}]]